Simultaneous Nadir Overpasses (SNOs) Predictions

Prediction of SNOs between NOAA-20 and METOP-C Satellite Orbit:

Table of predicted SNOs for the next 14.0 days since TLE Epoch: 5/8/2020
Index Date (NOAA-20) Time (NOAA-20) Lat,Lon (NOAA-20) SZA (NOAA-20 ) Date (METOP-C) Time (METOP-C) Lat,Lon (METOP-C) SZA (METOP-C ) Distance(km) Time Diff (sec)
1 05/13/2020 01:23:05 73.45, 149.64 55.11 05/13/2020 01:24:11 73.38, 152.50 54.91 90.98 66
2 05/13/2020 02:13:47 -73.35, -42.82 125.01 05/13/2020 02:14:55 -73.28, -40.38 125.18 78.19 68
3 05/13/2020 03:04:29 73.15, 124.93 54.77 05/13/2020 03:05:38 73.10, 126.56 54.64 52.93 69
4 05/13/2020 03:55:11 -73.06, -67.55 125.35 05/13/2020 03:56:22 -73.01, -66.31 125.45 40.33 71
5 05/13/2020 04:45:53 72.86, 100.19 54.43 05/13/2020 04:47:06 72.78, 100.53 54.33 14.02 73
6 05/13/2020 05:36:35 -72.76, -92.30 125.68 05/13/2020 05:37:49 -72.74, -92.23 125.72 3.02 74
7 05/13/2020 06:27:20 72.71, 75.12 54.26 05/13/2020 06:28:29 72.71, 75.04 54.25 2.51 69
8 05/13/2020 07:18:04 -72.71,-117.58 125.75 05/13/2020 07:19:11 -72.72,-117.61 125.75 1.25 67
9 05/13/2020 08:08:50 72.72, 49.73 54.25 05/13/2020 08:09:50 72.74, 49.76 54.26 2.83 60
10 05/13/2020 08:59:34 -72.72,-142.96 125.76 05/13/2020 09:00:33 -72.70,-142.99 125.79 2.36 59
11 05/13/2020 09:50:20 72.72, 24.34 54.24 05/13/2020 09:51:12 72.72, 24.38 54.22 1.30 52
12 05/13/2020 10:41:04 -72.73,-168.35 125.77 05/13/2020 10:41:54 -72.73,-168.27 125.78 2.79 50
13 05/13/2020 11:31:49 72.68, -0.94 54.17 05/13/2020 11:32:34 72.70, -1.00 54.19 3.12 45
14 05/13/2020 12:22:33 -72.68, 166.37 125.84 05/13/2020 12:23:16 -72.71, 166.35 125.81 3.29 43
15 05/13/2020 13:13:19 72.68, -26.33 54.16 05/13/2020 13:13:56 72.68, -26.38 54.15 2.01 37
16 05/13/2020 14:04:03 -72.69, 140.98 125.85 05/13/2020 14:04:38 -72.69, 140.97 125.85 0.51 35
17 05/13/2020 14:54:49 72.69, -51.71 54.15 05/13/2020 14:55:17 72.71, -51.66 54.16 2.68 28
18 05/13/2020 15:45:33 -72.69, 115.59 125.86 05/13/2020 15:46:00 -72.67, 115.59 125.89 2.59 27
19 05/13/2020 16:36:19 72.69, -77.10 54.14 05/13/2020 16:36:39 72.69, -77.04 54.12 2.04 20
20 05/13/2020 17:27:03 -72.70, 90.21 125.87 05/13/2020 17:27:21 -72.70, 90.31 125.88 3.38 18
21 05/13/2020 18:17:48 72.65,-102.38 54.07 05/13/2020 18:18:01 72.67,-102.43 54.09 2.33 13
22 05/13/2020 19:08:32 -72.65, 64.93 125.93 05/13/2020 19:08:43 -72.68, 64.93 125.91 2.87 11
23 05/13/2020 19:59:18 72.66,-127.77 54.06 05/13/2020 19:59:23 72.64,-127.81 54.05 1.75 5
24 05/13/2020 20:50:02 -72.66, 39.54 125.94 05/13/2020 20:50:05 -72.66, 39.55 125.95 0.27 3
25 05/13/2020 21:40:48 72.66,-153.16 54.05 05/13/2020 21:40:44 72.68,-153.09 54.06 2.77 4
26 05/13/2020 22:31:32 -72.67, 14.15 125.96 05/13/2020 22:31:27 -72.64, 14.17 125.98 2.99 5
27 05/13/2020 23:22:18 72.67,-178.54 54.04 05/13/2020 23:22:06 72.65,-178.47 54.03 2.83 12
28 05/14/2020 00:13:01 -72.62, -11.13 126.02 05/14/2020 00:12:49 -72.62, -11.22 126.02 2.85 12
29 05/14/2020 01:03:47 72.62, 156.18 53.98 05/14/2020 01:03:28 72.63, 156.15 53.99 1.53 19
30 05/14/2020 01:54:31 -72.63, -36.52 126.03 05/14/2020 01:54:10 -72.65, -36.49 126.01 2.60 21
31 05/14/2020 02:45:17 72.63, 130.79 53.97 05/14/2020 02:44:50 72.61, 130.77 53.96 1.83 27
32 05/14/2020 03:36:01 -72.63, -61.90 126.04 05/14/2020 03:35:32 -72.63, -61.88 126.04 1.02 29
33 05/14/2020 04:26:47 72.63, 105.40 53.96 05/14/2020 04:26:11 72.64, 105.49 53.97 3.08 36
34 05/14/2020 05:17:30 -72.59, -87.19 126.11 05/14/2020 05:16:54 -72.61, -87.26 126.08 3.26 36
35 05/14/2020 06:08:17 72.64, 80.02 53.95 05/14/2020 06:07:33 72.62, 80.11 53.93 3.64 44
36 05/14/2020 06:59:00 -72.59,-112.57 126.12 05/14/2020 06:58:16 -72.59,-112.64 126.11 2.25 44
37 05/14/2020 07:49:46 72.60, 54.73 53.88 05/14/2020 07:48:55 72.60, 54.73 53.90 0.77 51
38 05/14/2020 08:40:30 -72.60,-137.96 126.13 05/14/2020 08:39:37 -72.62,-137.92 126.10 2.54 53
39 05/14/2020 09:31:16 72.60, 29.35 53.87 05/14/2020 09:30:17 72.58, 29.34 53.86 2.23 59
40 05/14/2020 10:22:00 -72.61,-163.35 126.14 05/14/2020 10:20:59 -72.60,-163.30 126.14 1.81 61
41 05/14/2020 11:12:45 72.56, 4.06 53.80 05/14/2020 11:11:39 72.56, 3.96 53.83 3.37 66
42 05/14/2020 12:03:29 -72.56, 171.37 126.20 05/14/2020 12:02:21 -72.58, 171.32 126.17 2.51 68
43 05/14/2020 12:54:15 72.56, -21.32 53.79 05/14/2020 12:53:00 72.59, -21.32 53.84 3.18 75
44 05/14/2020 13:44:58 -72.52, 146.09 126.27 05/14/2020 13:43:44 -72.51, 145.84 126.25 8.38 74
45 05/14/2020 14:35:39 72.26, -46.10 53.46 05/14/2020 14:34:28 72.26, -47.31 53.52 40.85 71
46 05/14/2020 15:26:22 -72.22, 121.30 126.61 05/14/2020 15:25:11 -72.23, 119.95 126.52 45.84 71
47 05/14/2020 16:17:03 71.96, -70.90 53.12 05/14/2020 16:15:55 71.98, -73.18 53.26 78.59 68
48 05/14/2020 17:07:46 -71.92, 96.50 126.94 05/14/2020 17:06:39 -71.90, 93.99 126.83 86.75 67




NCC Satellite Simultaneous Nadir Overpasses (SNOs) Prediction Service
